Location: Unspecified
(0.0000°N, 0.0000°E)
Time: 19:10:30
(UTC+02:00)

Tiangong 1 - Visible Passes

Search period start: 26 June 2016 00:00
Search period end: 06 July 2016 00:00
Orbit: 369 x 386 km, 42.8° (Epoch: 26 June)

Date Brightness Start Highest point End Pass type
(mag) Time Alt. Az. Time Alt. Az. Time Alt. Az.
27 Jun 4.4 20:47:15 10° WNW 20:48:54 13° NW 20:50:33 10° NNW visible
28 Jun 4.3 06:39:52 10° NNE 06:41:30 14° NE 06:43:10 10° ENE visible
29 Jun 0.9 07:13:11 10° NW 07:16:14 72° SW 07:19:19 10° SE visible
30 Jun 3.2 06:15:21 26° ENE 06:15:21 26° ENE 06:17:18 10° ESE visible
01 Jul 3.3 06:51:13 14° S 06:51:13 14° S 06:51:53 10° SSE visible
